Location: Bijele Vode
(45.2833°N, 16.2000°E)
Time: 05:05:55
(UTC+00:00)

Cosmos 1125 Rocket - Pass Details

Date: 23 January 2021
Orbit: 757 x 781 km, 74.0° (Epoch: 05 March)

Event Time Altitude Azimuth Distance (km) Brightness Sun altitude
Rises 05:45:20 0° 334° (NNW) 3,266 6.3 -7.2°
Reaches altitude 10° 05:47:47 10° 329° (NNW) 2,337 5.5 -6.8°
Maximum altitude 05:52:53 49° 256° (WSW) 997 3.8 -6.0°
Drops below altitude 10° 05:57:58 10° 182° (S) 2,327 6.3 -5.1°
Sets 06:00:24 0° 177° (S) 3,251 7.1 -4.7°
